[Iaude] MPEC L08: 2024 KT1 [a=0.98,e=0.25,i=1.2,H=27.0]

mpec at cfa.harvard.edu mpec at cfa.harvard.edu
Sat Jun 1 07:24:27 EDT 2024


M.P.E.C. 2024-L08                                  Issued 2024 June 1, 11:22 UT

     The Minor Planet Electronic Circulars contain information on unusual
         minor planets, routine data on comets and natural satellites,
         and occasional editorial announcements.  They are published
    on behalf of Division F of the International Astronomical Union by the
          Minor Planet Center, Smithsonian Astrophysical Observatory,
                          Cambridge, MA 02138, U.S.A.
			  
             Prepared using the Tamkin Foundation Computer Network

                              MPC at CFA.HARVARD.EDU
            URL https://www.minorplanetcenter.net/    ISSN 1523-6714

                                    2024 KT1                                    


Observations:
     K24K01T*1C2024 05 31.20330815 02 51.266+03 00 48.60         19.59GVEL008G96
     K24K01T 1C2024 05 31.20898015 02 40.798+03 02 18.10         19.33GVEL008G96
     K24K01T 1C2024 05 31.21465415 02 29.900+03 03 52.45               VEL008G96
     K24K01T 1C2024 05 31.22032515 02 19.255+03 05 23.57         19.37GVEL008G96
     K24K01T KC2024 05 31.29261015 00 00.036+03 25 16.18         19.69GVEL008I52
     K24K01T KC2024 05 31.29319014 59 58.920+03 25 25.79         19.60GVEL008I52
     K24K01T KC2024 05 31.29377414 59 57.790+03 25 35.58         19.45GVEL008I52
     K24K01T KC2024 05 31.29436014 59 56.638+03 25 45.12         19.54GVEL008I52
     K24K01T  C2024 05 31.32011714 59 05.342+03 32 43.16         19.3 GVEL008H01
     K24K01T  C2024 05 31.32316314 58 59.419+03 33 34.20         19.5 GVEL008H01
     K24K01T  C2024 05 31.33389714 58 38.617+03 36 34.11         19.4 GVEL008H01
     K24K01T  C2024 05 31.34121114 58 24.439+03 38 37.03         19.3 GVEL008H01
     K24K01T KC2024 05 31.38094614 57 08.150+03 50 01.18         19.47GVEL008I52
     K24K01T KC2024 05 31.38346614 57 03.251+03 50 43.73         19.55GVEL008I52
     K24K01T KC2024 05 31.38411814 57 01.987+03 50 55.00         19.02GVEL008I52
     K24K01T KC2024 05 31.38477314 57 00.731+03 51 06.08         19.43GVEL008I52
     K24K01T KB2024 05 31.80635514 43 37.450+05 58 30.06         19.3 GXEL008M45
     K24K01T KB2024 05 31.81043714 43 28.158+05 59 50.14         19.5 GXEL008M45
     K24K01T KC2024 05 31.84705 14 42 10.78 +06 12 05.0          18.9 GXEL008K83
     K24K01T KC2024 05 31.85574 14 41 50.68 +06 14 57.5          19.4 GXEL008K83
     K24K01T KB2024 05 31.88099814 40 57.13 +06 23 20.8                XEL008958
     K24K01T KB2024 05 31.88570914 40 46.11 +06 24 55.5          19.8 GXEL008958
     K24K01T KB2024 05 31.89044214 40 35.03 +06 26 31.0          19.1 GXEL008958
     K24K01T KC2024 05 31.92433214 39 15.156+06 37 01.27         19.6 GVEL008J95
     K24K01T KC2024 05 31.92891414 39 04.342+06 38 33.40         19.5 GVEL008J95
     K24K01T KC2024 05 31.93725414 38 44.674+06 41 22.60         19.7 GVEL008J95
     K24K01T KC2024 05 31.96440 14 37 34.14 +06 51 23.9          19.6 GVEL008104
     K24K01T KC2024 05 31.96999 14 37 20.77 +06 53 17.7          19.8 GVEL008104
     K24K01T KC2024 05 31.97559 14 37 07.34 +06 55 12.7                VEL008104
     K24K01T KB2024 06 01.12630914 31 13.346+07 57 35.75         20.0 VZEL008Y05
     K24K01T KB2024 06 01.12971814 31 04.590+07 58 49.54         20.4 VZEL008Y05
     K24K01T KB2024 06 01.13307414 30 55.942+08 00 00.06         20.5 VZEL008Y05
     K24K01T mC2024 06 01.19325014 28 56.428+08 13 59.48         19.58GVEL008I52
     K24K01T mC2024 06 01.19342014 28 55.988+08 14 03.05         19.27GVEL008I52
     K24K01T mC2024 06 01.19359014 28 55.564+08 14 07.08         19.81GVEL008I52

Observer details:
104 San Marcello Pistoiese.  Observers P. Bacci, M. Maestripieri.  Measurer P.
    Bacci.  0.60-m f/4.0 reflector + CCD.
958 Observatoire de Dax.  Observer P. Dupouy.  0.50-m f/4.5 Reflector + CMO.
G96 Mt. Lemmon Survey.  Observer T. Beuden.  Measurers T. Beuden, V. F.
    Carvajal, D. Fay, J. B. Fazekas, D. C. Fuls, A. R. Gibbs, A. D. Grauer, H.
    Groeller, J. K. Hogan, R. A. Kowalski, S. M. Larson, G. J. Leonard, D.
    Rankin, R. L. Seaman, F. C. Shelly, K. W. Wierzchos.  1.5-m reflector +
    10K CCD.
H01 Magdalena Ridge Observatory, Socorro.  Observers W. H. Ryan, E. V. Ryan.
    Measurer W. H. Ryan.  2.4-m f/8.9 Ritchey-Chretien + CCD.
I52 Steward Observatory, Mt. Lemmon Station.  Observers V. F. Carvajal, K. W.
    Wierzchos.  Measurers T. Beuden, V. F. Carvajal, D. Fay, J. B. Fazekas, D.
    C. Fuls, A. R. Gibbs, A. D. Grauer, H. Groeller, J. K. Hogan, R. A.
    Kowalski, S. M. Larson, G. J. Leonard, D. Rankin, R. L. Seaman, F. C.
    Shelly, K. W. Wierzchos.  1.0-m prime focus + CCD.
J95 Great Shefford.  Observer P. Birtwhistle.  0.41-m f/6.3 Schmidt-Cassegrain
    + CCD.
K83 Beppe Forti Astronomical Observatory, Montelupo.  Observers M. Tombelli,
    G. Interrante, A. Mazzanti, E. Venticinque, M. Lombardo, M. Iozzi.
    Measurers M. Tombelli, F. Bernardi, A. Squilloni, F. Cheli.  0.40-m f/8
    Ritchey-Chretien + CCD.
M45 Starhopper Observatory, Sfantu Gheorghe.  Observer F. Ursache.  0.41-m
    f/7.5 reflector + CMO.
Y05 SONEAR Wykrota-CEAMIG, Serra da Piedade.  Observers C. Jacques, A.
    Caetano, E. Pimentel.  Measurer C. Jacques.  0.45-m f/2.9 reflector + CMO.

Orbital elements:
2024 KT1                                                 Earth MOID = 0.0049 AU
Epoch 2024 Mar. 31.0 TT = JDT 2460400.5                 Veres                   
M 210.27742              (2000.0)            P               Q                  
n   1.01366665     Peri.  278.77927     +0.99657744     -0.07977360             
a   0.9814600      Node    85.79835     +0.08178123     +0.91323383             
e   0.2461517      Incl.    1.24503     +0.01205152     +0.39954993             
P   0.97           H   27.03          G   0.15           U   6                  
Residuals in seconds of arc
240531 G96  0.3-  0.3-    240531 I52  0.1+  0.1+    240531 J95  0.1-  0.1-
240531 G96 (3.3+  2.9-)   240531 I52  0.0   0.2-    240531 J95  0.4+  0.1-
240531 G96  0.9+  0.9-    240531 I52  0.1+  0.0     240531 104  0.2+  0.1-
240531 G96 (2.7+  2.2-)   240531 I52  0.3+  0.1-    240531 104  0.3+  0.2-
240531 I52  0.0   0.0     240531 M45  1.2-  0.7+    240531 104  0.0   0.5+
240531 I52  0.2+  0.1-    240531 M45  1.4-  0.7+    240601 Y05  0.1+  0.2-
240531 I52  0.2+  0.0     240531 K83  0.5+  0.0     240601 Y05  0.1-  0.9+
240531 I52  0.0   0.2-    240531 K83  0.6+  0.3-    240601 Y05  0.6-  0.3-
240531 H01  0.0   0.0     240531 958  0.4+  0.3-    240601 I52  0.2-  0.0
240531 H01  0.2-  0.1+    240531 958  0.5+  0.2-    240601 I52  0.1-  0.1-
240531 H01  0.1-  0.0     240531 958  0.7+  0.1+    240601 I52  0.3+  0.1+
240531 H01  0.0   0.1+    240531 J95  0.1+  0.6+

Ephemeris:
2024 KT1                 a,e,i = 0.98, 0.25, 1                   q = 0.7399
Date    TT    R. A. (2000) Decl.     Delta      r    Elong.  Phase     V
2024 05 02    17 00 00.6 -16 29 43   0.1459  1.1313   145.7    30.1    24.4
...
2024 05 17    16 51 27.5 -13 58 13   0.07559 1.0831   161.1    17.6    22.5
...
2024 05 25    16 25 28.2 -09 52 52   0.04182 1.0538   168.2    11.4    21.0
...
2024 05 31    15 08 24.2 +02 11 17   0.01932 1.0304   148.4    31.0    19.9
2024 06 01    14 36 27.9 +07 08 49   0.01636 1.0264   138.6    40.8    19.8
2024 06 02    13 51 04.4 +13 44 21   0.01401 1.0223   125.1    54.2    19.8
...
2024 06 08    07 47 36.6 +29 57 02   0.02203 0.9975    36.9   142.4    25.9
...
2024 06 16    06 17 21.5 +23 37 19   0.05324 0.9633     9.0   170.5
...
2024 07 01    05 47 57.8 +20 49 13   0.1223  0.8976    12.4   165.9

M. P. C. Staff               (C) Copyright 2024 MPC           M.P.E.C. 2024-L08





More information about the Iaude mailing list